Air Quality Table

TIMESTAMP NO2 SO2 O3 PM10 PM2.5 CO TEMP HUM WS WD NO
2021-11-29 21:00 1.33 µg/m3 0.18 µg/m3 86.82 µg/m3 N/A 8.87 µg/m3 0.16 mg/m3 11.3 °C 74.29 % 17.34 m/s 279.22 Deg -0.05 µg/m3
2021-11-29 20:00 1.36 µg/m3 0.23 µg/m3 87.12 µg/m3 N/A 10.45 µg/m3 0.15 mg/m3 11.95 °C 71.36 % 15.95 m/s 252.38 Deg -0.06 µg/m3
2021-11-29 19:00 1.22 µg/m3 0.23 µg/m3 88.35 µg/m3 N/A 14.36 µg/m3 0.15 mg/m3 13.65 °C 58.2 % 18.99 m/s 193.2 Deg -0.07 µg/m3
2021-11-29 18:00 1.12 µg/m3 0.22 µg/m3 88.63 µg/m3 N/A 9.4 µg/m3 0.15 mg/m3 14.31 °C 57.39 % 19.58 m/s 199.56 Deg -0.09 µg/m3
2021-11-29 17:00 1.33 µg/m3 0.21 µg/m3 82.65 µg/m3 N/A 9.55 µg/m3 0.16 mg/m3 14.03 °C 68.43 % 17.91 m/s 216.52 Deg -0.1 µg/m3
2021-11-29 16:00 1.34 µg/m3 0.19 µg/m3 83.48 µg/m3 N/A 9.96 µg/m3 0.15 mg/m3 13.34 °C 67.47 % 18.57 m/s 246.03 Deg -0.09 µg/m3
2021-11-29 15:00 1.04 µg/m3 0.39 µg/m3 83.47 µg/m3 N/A 6.79 µg/m3 0.15 mg/m3 14.68 °C 59.29 % 17.18 m/s 183.29 Deg -0.1 µg/m3
2021-11-29 14:00 1.03 µg/m3 0.25 µg/m3 84.07 µg/m3 N/A 6.72 µg/m3 0.15 mg/m3 14.49 °C 61.05 % 16.07 m/s 160.33 Deg -0.05 µg/m3
2021-11-29 13:00 0.98 µg/m3 0.2 µg/m3 82.48 µg/m3 N/A 5.48 µg/m3 0.15 mg/m3 14.47 °C 59.69 % 15.99 m/s 165.14 Deg -0.05 µg/m3
2021-11-29 12:00 0.99 µg/m3 0.18 µg/m3 81.08 µg/m3 N/A 3.04 µg/m3 0.15 mg/m3 14.45 °C 59.51 % 15.51 m/s 185.79 Deg -0.03 µg/m3
2021-11-29 11:00 1.09 µg/m3 0.24 µg/m3 80.76 µg/m3 N/A 2.7 µg/m3 0.15 mg/m3 14.31 °C 58 % 14.89 m/s 182.86 Deg -0.03 µg/m3
2021-11-29 10:00 1.15 µg/m3 0.23 µg/m3 79.65 µg/m3 N/A 3.25 µg/m3 0.15 mg/m3 14.07 °C 58.4 % 14.23 m/s 197.12 Deg -0.03 µg/m3
2021-11-29 09:00 1.26 µg/m3 0.28 µg/m3 80.15 µg/m3 N/A 1.83 µg/m3 0.15 mg/m3 13.87 °C 60.24 % 14.18 m/s 157.61 Deg -0.06 µg/m3
2021-11-29 08:00 1.2 µg/m3 0.31 µg/m3 80.3 µg/m3 N/A 2.72 µg/m3 0.15 mg/m3 13.75 °C 58.52 % 14.17 m/s 143.06 Deg -0.1 µg/m3
2021-11-29 07:00 1.1 µg/m3 0.24 µg/m3 81.31 µg/m3 N/A 3.62 µg/m3 0.15 mg/m3 13.72 °C 59.13 % 13.45 m/s 200.12 Deg -0.12 µg/m3
2021-11-29 06:00 0.99 µg/m3 0.18 µg/m3 81.38 µg/m3 N/A 4.71 µg/m3 0.15 mg/m3 13.72 °C 60.53 % 13.37 m/s 203.09 Deg -0.13 µg/m3
2021-11-29 05:00 1.08 µg/m3 0.2 µg/m3 79.77 µg/m3 N/A 5.09 µg/m3 0.12 mg/m3 13.57 °C 61.76 % 12.81 m/s 196.57 Deg -0.12 µg/m3
2021-11-29 04:00 0.85 µg/m3 0.17 µg/m3 80.94 µg/m3 N/A 5.43 µg/m3 0.17 mg/m3 13.64 °C 64.15 % 13.11 m/s 254.34 Deg -0.12 µg/m3
2021-11-29 03:00 0.82 µg/m3 0.2 µg/m3 81.48 µg/m3 N/A 3.46 µg/m3 0.17 mg/m3 13.64 °C 65.54 % 12.39 m/s 220.98 Deg -0.12 µg/m3
2021-11-29 02:00 1.1 µg/m3 0.19 µg/m3 83.76 µg/m3 N/A 3.71 µg/m3 0.17 mg/m3 14.03 °C 64.58 % 12.63 m/s 233.72 Deg -0.11 µg/m3
2021-11-29 01:00 0.95 µg/m3 0.13 µg/m3 83.67 µg/m3 N/A 3.1 µg/m3 0.17 mg/m3 13.65 °C 71.76 % 10.71 m/s 214.42 Deg -0.11 µg/m3
2021-11-29 00:00 1.31 µg/m3 0.17 µg/m3 82.38 µg/m3 N/A 2.43 µg/m3 0.18 mg/m3 12.6 °C 84.32 % 10.2 m/s 255.37 Deg -0.11 µg/m3
2021-11-28 23:00 1.2 µg/m3 0.13 µg/m3 84.67 µg/m3 N/A 3.37 µg/m3 0.17 mg/m3 13.79 °C 76.49 % 9.05 m/s 230.44 Deg -0.12 µg/m3
2021-11-28 22:00 1.13 µg/m3 0.16 µg/m3 85.67 µg/m3 N/A 3.44 µg/m3 0.17 mg/m3 14.77 °C 70.04 % 9.36 m/s 196.96 Deg -0.12 µg/m3
2021-11-28 21:00 1.36 µg/m3 0.18 µg/m3 86.77 µg/m3 N/A 3.86 µg/m3 0.17 mg/m3 14.8 °C 74.43 % 8.65 m/s 246.83 Deg -0.12 µg/m3
2021-11-28 20:00 0.92 µg/m3 0.21 µg/m3 91.27 µg/m3 N/A 4.57 µg/m3 0.16 mg/m3 15.69 °C 62.41 % 9.84 m/s 224.78 Deg -0.12 µg/m3
2021-11-28 19:00 0.8 µg/m3 0.18 µg/m3 93.19 µg/m3 N/A 4.07 µg/m3 0.16 mg/m3 15.64 °C 66.33 % 9.57 m/s 183.49 Deg -0.13 µg/m3
2021-11-28 18:00 0.69 µg/m3 0.17 µg/m3 94.02 µg/m3 N/A 4.2 µg/m3 0.16 mg/m3 15.34 °C 71.19 % 9.38 m/s 232.43 Deg -0.13 µg/m3
2021-11-28 17:00 0.41 µg/m3 0.14 µg/m3 91.6 µg/m3 N/A 2.81 µg/m3 0.15 mg/m3 14.04 °C 90.52 % 11.14 m/s 230.55 Deg -0.13 µg/m3
2021-11-28 16:00 0.35 µg/m3 0.16 µg/m3 89.38 µg/m3 N/A 3.22 µg/m3 0.15 mg/m3 13.99 °C 97.94 % 10.26 m/s 256.74 Deg -0.12 µg/m3
2021-11-28 15:00 0.35 µg/m3 0.2 µg/m3 89.19 µg/m3 N/A 1.73 µg/m3 0.15 mg/m3 14.69 °C 96.09 % 9.11 m/s 182.88 Deg -0.12 µg/m3
2021-11-28 14:00 0.39 µg/m3 0.15 µg/m3 89.37 µg/m3 N/A 4.54 µg/m3 0.15 mg/m3 15.25 °C 89.22 % 8.76 m/s 223.78 Deg -0.12 µg/m3
2021-11-28 13:00 0.28 µg/m3 0.23 µg/m3 90.51 µg/m3 N/A 4.12 µg/m3 0.15 mg/m3 15.74 °C 84.02 % 11.58 m/s 176.6 Deg -0.1 µg/m3
2021-11-28 12:00 0.4 µg/m3 0.22 µg/m3 91.07 µg/m3 N/A 3.51 µg/m3 0.15 mg/m3 14.71 °C 95.93 % 12.49 m/s 180.03 Deg -0.11 µg/m3
2021-11-28 11:00 0.48 µg/m3 0.23 µg/m3 92.44 µg/m3 N/A 2.82 µg/m3 0.16 mg/m3 13.64 °C 98.85 % 10.68 m/s 193.58 Deg -0.11 µg/m3
2021-11-28 10:00 0.53 µg/m3 0.2 µg/m3 95.64 µg/m3 N/A 3.28 µg/m3 0.15 mg/m3 12.97 °C 98.38 % 10.36 m/s 191.44 Deg -0.13 µg/m3
2021-11-28 09:00 0.64 µg/m3 0.2 µg/m3 97.27 µg/m3 N/A 1.83 µg/m3 0.15 mg/m3 12.21 °C 97.8 % 9.51 m/s 191.33 Deg -0.13 µg/m3
2021-11-28 08:00 0.65 µg/m3 0.27 µg/m3 97.83 µg/m3 N/A 2.08 µg/m3 0.15 mg/m3 12.33 °C 89.81 % 7.84 m/s 200.31 Deg -0.12 µg/m3
2021-11-28 07:00 0.73 µg/m3 0.35 µg/m3 95.82 µg/m3 N/A 2.74 µg/m3 0.15 mg/m3 14.27 °C 77.62 % 9.17 m/s 217.56 Deg -0.12 µg/m3
2021-11-28 06:00 0.91 µg/m3 0.32 µg/m3 93.25 µg/m3 N/A 6.31 µg/m3 0.15 mg/m3 15.47 °C 70.9 % 9.55 m/s 229.91 Deg -0.12 µg/m3
2021-11-28 05:00 1.49 µg/m3 0.68 µg/m3 90.19 µg/m3 N/A 5.98 µg/m3 0.13 mg/m3 16.84 °C 66.53 % 10.85 m/s 201.1 Deg -0.11 µg/m3
2021-11-28 04:00 0.97 µg/m3 1.35 µg/m3 92.97 µg/m3 N/A 6.51 µg/m3 0.17 mg/m3 17.21 °C 64 % 9.34 m/s 149.8 Deg -0.12 µg/m3
2021-11-28 03:00 0.88 µg/m3 1.14 µg/m3 94.23 µg/m3 N/A 6.82 µg/m3 0.17 mg/m3 17.25 °C 63.55 % 9.37 m/s 155.11 Deg -0.12 µg/m3

It is to be noted that the data is provisional and subject to quality assurance procedures. For validated data kindly refer your request to contact.air@era.org.mt